Flag for U.S.A. Weather past 2 weeks in Shiprock, New Mexico, U.S.A.

Now
55 °F

Clear.


Feels Like: 54 °F
Forecast: 57 / 90 °F
Wind: 6 mph from East

Location: Four Corners Regional Airport

Current Time: Aug 28, 2015 at 7:25:56 AM

Latest Report: Aug 28, 2015 at 6:53 AM


Visibility: 10 mi

Pressure: 30.06 "Hg (25.15 "Hg at 1492m altitude)

Humidity: 87%

Dew point: 51 °F

Location of ShiprockLocation

Historic Weather in Shiprock — Graph

°F

Shiprock temperature yesterday

Maximum temperature yesterday: 84 °F (at 3:53 PM)
Minimum temperature yesterday: 58 °F (at 6:53 AM)
Average temperature yesterday: 70 °F

Past Weeks' High & Low Weather Summary

 TemperatureHumidityPressure
High97 °F (Aug 15, 3:53 PM)93% (Aug 26, 10:02 PM)30.37 "Hg (Aug 26, 10:02 PM)
Low54 °F (Aug 20, 5:53 AM)6% (Aug 18, 4:53 PM)29.69 "Hg (Aug 18, 4:53 PM)
Average76 °F36%29.97 "Hg
* Reported Aug 13 5:53 AM — Aug 28 5:53 AM, Shiprock, Weather by CustomWeather, © 2015

Note: Actual official high and low records may vary slightly from our data, if they occured in-between our weather recording intervals... More about our weather records

Advertising

Shiprock weather history for previous 24 hours

 ConditionsComfort  
Time TempWeatherWind HumidityBarometerVisibility
5:53 AM
Fri, Aug 28
56 °FClear.7 mph84%30.06 "Hg10 mi
4:53 AM58 °FClear.No wind81%30.04 "Hg10 mi
3:53 AM58 °FClear.7 mph81%30.04 "Hg10 mi
2:53 AM60 °FClear.3 mph78%30.04 "Hg10 mi
1:53 AM63 °FClear.3 mph68%30.03 "Hg10 mi
12:53 AM65 °FClear.No wind63%30.03 "Hg10 mi
11:53 PM
Thu, Aug 27
69 °FClear.No wind53%30.03 "Hg10 mi
10:53 PM71 °FClear.6 mph47%30.03 "Hg10 mi
9:53 PM73 °FClear.8 mph44%30.02 "Hg10 mi
8:53 PM73 °FClear.6 mph44%30.02 "Hg10 mi
7:53 PM78 °FSunny.12 mph32%29.99 "Hg10 mi
6:53 PM82 °FSunny.17 mph31%30.00 "Hg10 mi
5:53 PM82 °FSunny.17 mph32%30.00 "Hg10 mi
4:53 PM84 °FSunny.13 mph32%30.00 "Hg10 mi
3:53 PM84 °FSunny.10 mph36%30.04 "Hg10 mi
2:53 PM81 °FPassing clouds.8 mph42%30.06 "Hg10 mi
1:53 PM78 °FPassing clouds.8 mph46%30.11 "Hg10 mi
12:53 PM77 °FPartly sunny.9 mph48%30.15 "Hg10 mi
11:53 AM73 °FScattered clouds.5 mph57%30.18 "Hg10 mi
10:53 AM70 °FPassing clouds.5 mph61%30.20 "Hg10 mi
9:53 AM68 °FSunny.5 mph70%30.21 "Hg10 mi
8:53 AM64 °FPartly sunny.6 mph78%30.20 "Hg10 mi
7:53 AM63 °FSunny.5 mph81%30.19 "Hg10 mi
Weather by CustomWeather, © 2015

See weather overviewHow to use our weather pages